Showing default

PROX-1, 44339

Orbit data source: Space-Track

PROX-1, 44339 is a payload satellite owned by GaTech (US) in LEO that was launched on Tue, 25 Jun 2019 UTC via an FALCON HEAVY launch vehicle from the Air Force Eastern Test Range (AFETR). Payload-class satellites include a variety of spacecraft equipped with specific instruments for various scientific and technological missions. These include communications satellites like Starlink; space stations such as the ISS; scientific satellites like the Hubble; Earth observation satellites from companies like Planet Labs, Umbra, and HawkEye 360; GPS; miniature CubeSats for education and research; and military/defense satellites.

Not visible in the next 10 days
Identifier
44339, 2019-036A
Orbit
LEO
Country
Flag of USUS
Related business
Manufacturer
GaTech
Mission
Operational Amateur Technology
Bus & Motor
PROX-1, Unknown motor
Mass
70 kg wet, 70 kg dry
Launch date (UTC)
2019-06-25 (6 years ago)
Launch vehicle
FALCON HEAVY
Launch site
Air Force Eastern Test Range (AFETR)
Object type
Payload
Rocket body
Debris
Shape & HBR
Box + 1 Tether, 0.3 m
Radar Cross Section
0.360 m², Medium (>0.1 m² and < 1m²)

Expand to show TLE details & history
Last TLE update: 8 hours ago

TLE from 8 hours ago
0 PROX-1
1 44339U 19036A   25291.10508522  .00025755  00000-0  30469-2 0  9992
2 44339  23.9963 282.6450 0007461 126.0881 234.0308 14.83124669337397
Epoch: 2025-10-18T02:31Z
TLE epoch observation values (Epoch: 2025-10-18T02:31:19.363Z)
Latitude
-0.00001°
Longitude
-142.02659°
Altitude
620.448 km
Speed
7.55 km/s
True Right ascension
18h 50m 34s
True Declination
0° 00' 00"
Sunlit
Object was in daylight at epoch
Visualization orbit readout
Latitude
Unknown
Longitude
Unknown
Altitude
Unknown
Speed
Unknown
Apparent Right ascension
Unknown
Apparent Declination
Unknown
Sunlit
N/A
Visualization observer readout
Local Sidereal Time
05:27:29
Azimuth
Unknown
Elevation
Unknown
Doppler factor
Unknown
Orbital elements
Apogee altitude
629.442 km
Perigee altitude
618.993 km
Semi-major axis
7,002.355 km
Eccentricity
0.00075
Inclination
23.9963°
RAAN
282.645°
Arg. of periapsis
126.0881°
True anomaly
233.96164°
Mean anomaly
234.0308°
Eccentric anomaly
233.99622°
Mean motion
3.70405 °/min
Orbital period
97.19 mins
BSTAR
0.0030469
Loading maneuver chart data...
Computing Atmospheric mass density...

Documentation

Showing up to 5 results
|